| time (UTC) | temp F | wind direction | speed MPH | gust MPH | rain 1hr in | rain 24hr in | rain mn in | humidity % | barometer mb |
| 20260904134345 | 77 | 165 | 5.0 | 9.0 | 0.00 | 0.00 | 0.00 | 70 | 1025.2 |
| 20260904133338 | 76 | 188 | 4.0 | 8.0 | 0.00 | 0.00 | 0.00 | 71 | 1025.1 |
| 20260904132330 | 75 | 191 | 4.0 | 6.0 | 0.00 | 0.00 | 0.00 | 72 | 1024.8 |
| 20260904131345 | 75 | 175 | 3.0 | 6.0 | 0.00 | 0.00 | 0.00 | 73 | 1024.7 |
| 20260904130335 | 75 | 191 | 4.0 | 5.0 | 0.00 | 0.00 | 0.00 | 73 | 1024.7 |
| 20260904125328 | 75 | 183 | 3.0 | 5.0 | 0.00 | 0.00 | 0.00 | 72 | 1024.5 |
| 20260904124350 | 75 | 178 | 3.0 | 6.0 | 0.00 | 0.00 | 0.00 | 72 | 1024.4 |
| 20260904123344 | 75 | 178 | 4.0 | 7.0 | 0.00 | 0.00 | 0.00 | 72 | 1024.2 |
| 20260904122403 | 75 | 181 | 4.0 | 7.0 | 0.00 | 0.00 | 0.00 | 73 | 1024.1 |
| 20260904121403 | 75 | 198 | 4.0 | 5.0 | 0.00 | 0.00 | 0.00 | 73 | 1024.0 |
| 20260904120333 | 75 | 43 | 0.0 | 2.0 | 0.00 | 0.00 | 0.00 | 71 | 1024.0 |
| 20260904115352 | 75 | 43 | 1.0 | 3.0 | 0.00 | 0.00 | 0.00 | 71 | 1023.9 |
| 20260904114352 | 76 | 43 | 1.0 | 3.0 | 0.00 | 0.00 | 0.00 | 71 | 1023.9 |
| 20260904113346 | 76 | 43 | 2.0 | 3.0 | 0.00 | 0.00 | 0.00 | 70 | 1023.9 |
| 20260904112339 | 76 | 43 | 2.0 | 4.0 | 0.00 | 0.00 | 0.00 | 69 | 1023.9 |
| 20260904111334 | 76 | 43 | 2.0 | 3.0 | 0.00 | 0.00 | 0.00 | 70 | 1023.9 |
| 20260904110346 | 76 | 43 | 3.0 | 4.0 | 0.00 | 0.00 | 0.00 | 70 | 1024.0 |
| 20260904105340 | 76 | 43 | 3.0 | 4.0 | 0.00 | 0.00 | 0.00 | 71 | 1024.0 |
| 20260904104335 | 76 | 53 | 2.0 | 4.0 | 0.00 | 0.00 | 0.00 | 71 | 1023.9 |
| 20260904103329 | 76 | 36 | 2.0 | 4.0 | 0.00 | 0.00 | 0.00 | 70 | 1023.9 |
| 20260904102328 | 76 | 36 | 3.0 | 4.0 | 0.00 | 0.00 | 0.00 | 69 | 1023.9 |
| 20260904101327 | 76 | 36 | 3.0 | 5.0 | 0.00 | 0.00 | 0.00 | 70 | 1023.9 |
| 20260904100340 | 76 | 76 | 3.0 | 4.0 | 0.00 | 0.00 | 0.00 | 70 | 1023.8 |
| 20260904095333 | 76 | 124 | 3.0 | 4.0 | 0.00 | 0.00 | 0.00 | 70 | 1023.8 |
| 20260904094329 | 77 | 124 | 1.0 | 2.0 | 0.00 | 0.00 | 0.00 | 69 | 1023.9 |
| 20260904093349 | 77 | 124 | 1.0 | 3.0 | 0.00 | 0.00 | 0.00 | 68 | 1023.8 |
| 20260904092342 | 77 | 124 | 0.0 | 3.0 | 0.00 | 0.00 | 0.00 | 69 | 1023.6 |
| 20260904091404 | 77 | 124 | 1.0 | 3.0 | 0.00 | 0.00 | 0.00 | 69 | 1023.6 |
| 20260904090354 | 77 | 124 | 2.0 | 3.0 | 0.00 | 0.00 | 0.00 | 69 | 1023.8 |
| 20260904085326 | 76 | 124 | 3.0 | 6.0 | 0.00 | 0.00 | 0.00 | 70 | 1023.8 |
| 20260904084407 | 76 | 200 | 2.0 | 3.0 | 0.00 | 0.00 | 0.00 | 70 | 1023.9 |
| 20260904083406 | 76 | 202 | 3.0 | 5.0 | 0.00 | 0.00 | 0.00 | 71 | 1023.9 |
| 20260904082338 | 77 | 76 | 2.0 | 3.0 | 0.00 | 0.00 | 0.00 | 69 | 1023.9 |
| 20260904081333 | 77 | 76 | 0.0 | 4.0 | 0.00 | 0.00 | 0.00 | 68 | 1024.0 |
| 20260904080345 | 77 | 76 | 3.0 | 5.0 | 0.00 | 0.00 | 0.00 | 68 | 1024.1 |
| 20260904075338 | 77 | 69 | 5.0 | 6.0 | 0.00 | 0.00 | 0.00 | 67 | 1024.1 |
| 20260904074334 | 77 | 74 | 4.0 | 6.0 | 0.00 | 0.00 | 0.00 | 67 | 1024.0 |
| 20260904073328 | 77 | 65 | 4.0 | 6.0 | 0.00 | 0.00 | 0.00 | 67 | 1024.0 |
| 20260904072347 | 77 | 61 | 3.0 | 4.0 | 0.00 | 0.00 | 0.00 | 67 | 1024.0 |
| 20260904071342 | 77 | 65 | 3.0 | 5.0 | 0.00 | 0.00 | 0.00 | 68 | 1024.1 |
| 20260904070332 | 77 | 69 | 1.0 | 3.0 | 0.00 | 0.00 | 0.00 | 70 | 1024.1 |
| 20260904065339 | 77 | 69 | 2.0 | 4.0 | 0.00 | 0.00 | 0.00 | 70 | 1024.1 |
| 20260904064346 | 76 | 93 | 2.0 | 3.0 | 0.00 | 0.00 | 0.00 | 71 | 1024.0 |
| 20260904063339 | 77 | 222 | 1.0 | 3.0 | 0.00 | 0.00 | 0.00 | 68 | 1024.1 |
| 20260904062331 | 78 | 222 | 1.0 | 2.0 | 0.00 | 0.00 | 0.00 | 67 | 1024.1 |
| 20260904061330 | 78 | 222 | 0.0 | 3.0 | 0.00 | 0.00 | 0.00 | 67 | 1024.1 |
| 20260904060341 | 78 | 223 | 1.0 | 2.0 | 0.00 | 0.00 | 0.00 | 67 | 1024.1 |
| 20260904055401 | 79 | 222 | 0.0 | 1.0 | 0.00 | 0.00 | 0.00 | 65 | 1024.0 |
| 20260904054337 | 78 | 222 | 2.0 | 3.0 | 0.00 | 0.00 | 0.00 | 65 | 1024.1 |
| 20260904053358 | 78 | 223 | 2.0 | 3.0 | 0.00 | 0.00 | 0.00 | 67 | 1023.9 |
| 20260904052329 | 78 | 222 | 2.0 | 4.0 | 0.00 | 0.00 | 0.00 | 68 | 1023.9 |
| 20260904051350 | 78 | 222 | 1.0 | 2.0 | 0.00 | 0.00 | 0.00 | 67 | 1023.9 |
| 20260904050345 | 78 | 222 | 2.0 | 3.0 | 0.00 | 0.00 | 0.00 | 66 | 1024.2 |
| 20260904045337 | 78 | 222 | 0.0 | 2.0 | 0.00 | 0.00 | 0.00 | 65 | 1024.3 |
| 20260904044330 | 79 | 223 | 0.0 | 4.0 | 0.00 | 0.00 | 0.00 | 65 | 1024.3 |
| 20260904043342 | 79 | 293 | 0.0 | 3.0 | 0.00 | 0.00 | 0.00 | 65 | 1024.2 |
| 20260904042337 | 79 | 51 | 2.0 | 4.0 | 0.00 | 0.00 | 0.00 | 64 | 1024.3 |
| 20260904041336 | 79 | 51 | 1.0 | 4.0 | 0.00 | 0.00 | 0.00 | 63 | 1024.4 |
| 20260904040331 | 79 | 34 | 1.0 | 5.0 | 0.00 | 0.00 | 0.00 | 63 | 1024.3 |
| 20260904035328 | 79 | 24 | 3.0 | 5.0 | 0.00 | 0.00 | 0.00 | 63 | 1024.3 |
| 20260904034352 | 80 | 355 | 4.0 | 11.0 | 0.00 | 0.00 | 0.00 | 62 | 1024.1 |
| 20260904033351 | 80 | 46 | 6.0 | 11.0 | 0.00 | 0.00 | 0.00 | 61 | 1024.0 |
| 20260904032347 | 80 | 28 | 6.0 | 12.0 | 0.00 | 0.00 | 0.00 | 61 | 1023.9 |
| 20260904031345 | 81 | 73 | 5.0 | 12.0 | 0.00 | 0.00 | 0.00 | 59 | 1023.9 |
| 20260904030359 | 82 | 55 | 4.0 | 7.0 | 0.00 | 0.00 | 0.00 | 57 | 1023.6 |
| 20260904025336 | 82 | 63 | 4.0 | 9.0 | 0.00 | 0.00 | 0.00 | 55 | 1023.4 |
| 20260904024335 | 82 | 172 | 4.0 | 9.0 | 0.00 | 0.00 | 0.00 | 55 | 1023.1 |
| 20260904023334 | 82 | 205 | 6.0 | 12.0 | 0.00 | 0.00 | 0.00 | 53 | 1023.1 |
| 20260904022334 | 82 | 186 | 7.0 | 10.0 | 0.00 | 0.00 | 0.00 | 53 | 1022.8 |
| 20260904021330 | 82 | 183 | 5.0 | 9.0 | 0.00 | 0.00 | 0.00 | 53 | 1022.7 |
| 20260904020343 | 82 | 154 | 4.0 | 8.0 | 0.00 | 0.00 | 0.00 | 54 | 1022.7 |
| 20260904015330 | 82 | 165 | 7.0 | 11.0 | 0.00 | 0.00 | 0.00 | 55 | 1022.5 |
| 20260904014407 | 82 | 192 | 6.0 | 10.0 | 0.00 | 0.00 | 0.00 | 55 | 1022.6 |
| 20260904013335 | 82 | 178 | 4.0 | 10.0 | 0.00 | 0.00 | 0.00 | 55 | 1022.4 |
| 20260904012413 | 82 | 161 | 8.0 | 17.0 | 0.00 | 0.00 | 0.00 | 56 | 1022.3 |
| 20260904011346 | 82 | 218 | 12.0 | 22.0 | 0.00 | 0.00 | 0.00 | 56 | 1022.1 |
| 20260904010358 | 83 | 221 | 13.0 | 19.0 | 0.00 | 0.00 | 0.00 | 56 | 1022.2 |
| 20260904005344 | 84 | 205 | 12.0 | 15.0 | 0.00 | 0.00 | 0.00 | 54 | 1022.2 |
| 20260904004404 | 84 | 210 | 10.0 | 16.0 | 0.00 | 0.00 | 0.00 | 53 | 1022.2 |
| 20260904003336 | 85 | 267 | 9.0 | 18.0 | 0.00 | 0.00 | 0.00 | 52 | 1022.0 |
| 20260904002332 | 86 | 217 | 12.0 | 16.0 | 0.00 | 0.00 | 0.00 | 48 | 1021.9 |
| 20260904001342 | 86 | 219 | 12.0 | 16.0 | 0.00 | 0.00 | 0.00 | 48 | 1021.8 |
| 20260904000328 | 86 | 229 | 9.0 | 18.0 | 0.00 | 0.00 | 0.00 | 49 | 1022.0 |
| 20260903235337 | 85 | 244 | 11.0 | 16.0 | 0.00 | 0.00 | 0.00 | 50 | 1022.0 |
| 20260903234327 | 86 | 237 | 13.0 | 20.0 | 0.00 | 0.00 | 0.00 | 51 | 1022.0 |
| 20260903233336 | 87 | 227 | 10.0 | 20.0 | 0.00 | 0.00 | 0.00 | 48 | 1021.9 |
| 20260903232350 | 88 | 281 | 10.0 | 13.0 | 0.00 | 0.00 | 0.00 | 42 | 1021.8 |
| 20260903231340 | 88 | 271 | 8.0 | 14.0 | 0.00 | 0.00 | 0.00 | 43 | 1021.9 |
| 20260903230327 | 89 | 302 | 7.0 | 11.0 | 0.00 | 0.00 | 0.00 | 42 | 1021.8 |
| 20260903225334 | 89 | 240 | 7.0 | 12.0 | 0.00 | 0.00 | 0.00 | 41 | 1021.8 |
| 20260903224404 | 89 | 254 | 9.0 | 13.0 | 0.00 | 0.00 | 0.00 | 40 | 1021.9 |
| 20260903223337 | 91 | 267 | 5.0 | 9.0 | 0.00 | 0.00 | 0.00 | 39 | 1021.8 |
| 20260903222328 | 90 | 262 | 3.0 | 12.0 | 0.00 | 0.00 | 0.00 | 40 | 1021.8 |
| 20260903221346 | 91 | 238 | 8.0 | 11.0 | 0.00 | 0.00 | 0.00 | 38 | 1021.9 |
| 20260903220334 | 90 | 277 | 2.0 | 9.0 | 0.00 | 0.00 | 0.00 | 39 | 1022.0 |
| 20260903215326 | 90 | 269 | 6.0 | 16.0 | 0.00 | 0.00 | 0.00 | 40 | 1022.3 |
| 20260903214348 | 92 | 265 | 6.0 | 14.0 | 0.00 | 0.00 | 0.00 | 37 | 1022.4 |
| 20260903213343 | 91 | 113 | 1.0 | 8.0 | 0.00 | 0.00 | 0.00 | 38 | 1022.4 |
| 20260903212335 | 91 | 229 | 6.0 | 12.0 | 0.00 | 0.00 | 0.00 | 38 | 1022.5 |
| 20260903211329 | 91 | 261 | 7.0 | 13.0 | 0.00 | 0.00 | 0.00 | 39 | 1022.6 |
| 20260903210339 | 90 | 212 | 5.0 | 8.0 | 0.00 | 0.00 | 0.00 | 40 | 1022.7 |
| 20260903205331 | 89 | 276 | 6.0 | 11.0 | 0.00 | 0.00 | 0.00 | 41 | 1023.0 |
| 20260903204352 | 89 | 209 | 6.0 | 10.0 | 0.00 | 0.00 | 0.00 | 41 | 1023.2 |
| 20260903203346 | 89 | 251 | 9.0 | 13.0 | 0.00 | 0.00 | 0.00 | 41 | 1023.2 |
| 20260903202338 | 89 | 302 | 2.0 | 8.0 | 0.00 | 0.00 | 0.00 | 42 | 1023.4 |
| 20260903201400 | 89 | 235 | 5.0 | 7.0 | 0.00 | 0.00 | 0.00 | 42 | 1023.6 |
| 20260903200332 | 89 | 360 | 3.0 | 12.0 | 0.00 | 0.00 | 0.00 | 42 | 1023.8 |
| 20260903195351 | 88 | 292 | 2.0 | 13.0 | 0.00 | 0.00 | 0.00 | 43 | 1023.9 |
| 20260903194345 | 88 | 259 | 4.0 | 13.0 | 0.00 | 0.00 | 0.00 | 45 | 1024.1 |
| 20260903193339 | 88 | 202 | 4.0 | 12.0 | 0.00 | 0.00 | 0.00 | 43 | 1024.3 |
| 20260903192331 | 87 | 213 | 5.0 | 10.0 | 0.00 | 0.00 | 0.00 | 46 | 1024.5 |
| 20260903191330 | 86 | 225 | 5.0 | 11.0 | 0.00 | 0.00 | 0.00 | 47 | 1024.6 |
| 20260903190344 | 86 | 247 | 6.0 | 11.0 | 0.00 | 0.00 | 0.00 | 47 | 1024.8 |
| 20260903185341 | 86 | 230 | 5.0 | 13.0 | 0.00 | 0.00 | 0.00 | 47 | 1025.0 |
| 20260903184338 | 86 | 237 | 6.0 | 12.0 | 0.00 | 0.00 | 0.00 | 47 | 1025.2 |
| 20260903183400 | 85 | 231 | 7.0 | 10.0 | 0.00 | 0.00 | 0.00 | 48 | 1025.3 |
| 20260903182347 | 85 | 233 | 6.0 | 12.0 | 0.00 | 0.00 | 0.00 | 48 | 1025.4 |
| 20260903181339 | 85 | 295 | 3.0 | 11.0 | 0.00 | 0.00 | 0.00 | 50 | 1025.5 |
| 20260903180330 | 85 | 209 | 5.0 | 11.0 | 0.00 | 0.00 | 0.00 | 51 | 1025.6 |
| 20260903175349 | 84 | 202 | 4.0 | 10.0 | 0.00 | 0.00 | 0.00 | 51 | 1025.8 |
| 20260903174349 | 82 | 250 | 4.0 | 11.0 | 0.00 | 0.00 | 0.00 | 54 | 1025.8 |
| 20260903173343 | 82 | 170 | 6.0 | 11.0 | 0.00 | 0.00 | 0.00 | 54 | 1025.9 |
| 20260903172336 | 82 | 238 | 4.0 | 8.0 | 0.00 | 0.00 | 0.00 | 55 | 1025.9 |
| 20260903171331 | 82 | 171 | 5.0 | 9.0 | 0.00 | 0.00 | 0.00 | 56 | 1025.9 |
| 20260903170343 | 81 | 183 | 6.0 | 10.0 | 0.00 | 0.00 | 0.00 | 57 | 1025.9 |
| 20260903165335 | 81 | 200 | 6.0 | 9.0 | 0.00 | 0.00 | 0.00 | 58 | 1025.9 |
| 20260903164330 | 81 | 208 | 6.0 | 10.0 | 0.00 | 0.00 | 0.00 | 58 | 1025.9 |
| 20260903163329 | 81 | 169 | 4.0 | 9.0 | 0.00 | 0.00 | 0.00 | 59 | 1025.9 |
| 20260903162349 | 80 | 173 | 5.0 | 8.0 | 0.00 | 0.00 | 0.00 | 60 | 1025.9 |
| 20260903161338 | 80 | 206 | 6.0 | 9.0 | 0.00 | 0.00 | 0.00 | 62 | 1026.0 |
| 20260903160351 | 79 | 163 | 4.0 | 8.0 | 0.00 | 0.00 | 0.00 | 61 | 1026.1 |
| 20260903155343 | 80 | 213 | 6.0 | 9.0 | 0.00 | 0.00 | 0.00 | 61 | 1026.2 |
| 20260903154336 | 79 | 225 | 4.0 | 7.0 | 0.00 | 0.00 | 0.00 | 61 | 1026.1 |
| 20260903153330 | 79 | 170 | 4.0 | 8.0 | 0.00 | 0.00 | 0.00 | 63 | 1026.1 |
| 20260903152349 | 79 | 207 | 3.0 | 7.0 | 0.00 | 0.00 | 0.00 | 63 | 1026.1 |
| 20260903151344 | 79 | 219 | 5.0 | 6.0 | 0.00 | 0.00 | 0.00 | 62 | 1026.2 |
| 20260903150334 | 79 | 211 | 1.0 | 3.0 | 0.00 | 0.00 | 0.00 | 62 | 1026.0 |
| 20260903145325 | 79 | 221 | 3.0 | 6.0 | 0.00 | 0.00 | 0.00 | 63 | 1026.1 |
| 20260903144346 | 78 | 161 | 3.0 | 4.0 | 0.00 | 0.00 | 0.00 | 64 | 1026.1 |
| 20260903143340 | 78 | 145 | 3.0 | 4.0 | 0.00 | 0.00 | 0.00 | 68 | 1026.1 |
| 20260903142334 | 77 | 155 | 1.0 | 3.0 | 0.00 | 0.00 | 0.00 | 71 | 1026.0 |
| 20260903141328 | 77 | 155 | 3.0 | 6.0 | 0.00 | 0.00 | 0.00 | 71 | 1026.1 |
| 20260903140337 | 77 | 192 | 2.0 | 4.0 | 0.00 | 0.00 | 0.00 | 71 | 1026.0 |
| 20260903135330 | 77 | 192 | 3.0 | 4.0 | 0.00 | 0.00 | 0.00 | 71 | 1025.9 |